GW4573 Weather Reports


time (UTC)temp
C
wind
direction
speed
KPH
gust
KPH
rain 1hr
cm
rain 24hr
cm
rain mn
cm
humidity
%
barometer
mb
20260510192619 21 133 1.6 4.8 0.00 0.00 0.00 49 1017.9
20260510192116 21 328 12.9 22.5 0.00 0.00 0.00 48 1017.9
20260510191611 22 9 4.8 17.7 0.00 0.00 0.00 48 1017.7
20260510191108 22 317 12.9 17.7 0.00 0.00 0.00 50 1017.7
20260510190606 22 339 11.3 14.5 0.00 0.00 0.00 46 1017.6
20260510190103 23 255 6.4 22.5 0.00 0.00 0.00 48 1017.6
20260510185559 23 204 11.3 17.7 0.00 0.00 0.00 47 1017.5
20260510185057 22 305 6.4 6.4 0.00 0.00 0.00 49 1017.5
20260510184554 22 319 9.7 14.5 0.00 0.00 0.00 47 1017.4
20260510184049 22 307 9.7 11.3 0.00 0.00 0.00 47 1017.5
20260510183544 22 208 6.4 14.5 0.00 0.00 0.00 50 1017.3
20260510183041 22 288 3.2 11.3 0.00 0.00 0.00 48 1017.4
20260510182538 22 251 6.4 9.7 0.00 0.00 0.00 49 1017.3
20260510182032 22 309 9.7 12.9 0.00 0.00 0.00 51 1017.3
20260510181530 22 234 4.8 11.3 0.00 0.00 0.00 49 1017.3
20260510181026 23 275 9.7 9.7 0.00 0.00 0.00 49 1017.3
20260510180523 22 298 8.0 17.7 0.00 0.00 0.00 49 1017.6
20260510180021 23 256 14.5 20.9 0.00 0.00 0.00 45 1017.5
20260510175516 23 269 4.8 20.9 0.00 0.00 0.00 51 1017.5
20260510175012 23 294 3.2 4.8 0.00 0.00 0.00 51 1017.6
20260510174510 23 300 9.7 17.7 0.00 0.00 0.00 46 1017.7
20260510174007 23 282 6.4 14.5 0.00 0.00 0.00 44 1017.5
20260510173457 23 277 8.0 17.7 0.00 0.00 0.00 48 1017.7
20260510172954 23 278 4.8 22.5 0.00 0.00 0.00 47 1017.7
20260510172450 22 296 4.8 14.5 0.00 0.00 0.00 49 1017.6
20260510171946 22 309 6.4 22.5 0.00 0.00 0.00 54 1017.5
20260510171443 22 326 3.2 6.4 0.00 0.00 0.00 48 1017.9
20260510170939 22 288 6.4 11.3 0.00 0.00 0.00 51 1017.9
20260510170436 22 305 6.4 12.9 0.00 0.00 0.00 47 1018.2
20260510165932 22 292 14.5 16.1 0.00 0.00 0.00 53 1018.1
20260510165428 22 302 8.0 17.7 0.00 0.00 0.00 49 1018.2
20260510164926 22 293 11.3 14.5 0.00 0.00 0.00 48 1018.1
20260510164423 22 253 8.0 17.7 0.00 0.00 0.00 52 1018.0
20260510163922 22 284 16.1 20.9 0.00 0.00 0.00 50 1018.5
20260510163419 22 210 9.7 14.5 0.00 0.00 0.00 50 1018.5
20260510162913 22 267 16.1 17.7 0.00 0.00 0.00 50 1018.4
20260510162412 22 196 3.2 14.5 0.00 0.00 0.00 50 1018.3
20260510161907 21 290 9.7 12.9 0.00 0.00 0.00 57 1018.5
20260510161403 21 187 9.7 12.9 0.00 0.00 0.00 55 1018.5
20260510160900 21 266 12.9 14.5 0.00 0.00 0.00 57 1018.5
20260510160357 21 194 9.7 14.5 0.00 0.00 0.00 55 1018.4
20260510155855 21 208 11.3 16.1 0.00 0.00 0.00 54 1018.5
20260510155353 21 271 4.8 11.3 0.00 0.00 0.00 56 1018.6
20260510154848 21 274 9.7 16.1 0.00 0.00 0.00 54 1018.6
20260510154345 21 308 9.7 14.5 0.00 0.00 0.00 55 1018.5
20260510153839 21 294 6.4 12.9 0.00 0.00 0.00 56 1018.6
20260510153335 21 213 3.2 9.7 0.00 0.00 0.00 55 1018.6
20260510152832 20 318 6.4 11.3 0.00 0.00 0.00 58 1018.6
20260510152329 20 245 6.4 12.9 0.00 0.00 0.00 57 1018.4
20260510151825 20 259 8.0 14.5 0.00 0.00 0.00 60 1018.6
20260510151323 20 39 1.6 14.5 0.00 0.00 0.00 59 1018.6
20260510150819 20 292 11.3 14.5 0.00 0.00 0.00 59 1018.3
20260510150315 20 257 8.0 9.7 0.00 0.00 0.00 66 1018.4
20260510145811 20 165 3.2 11.3 0.00 0.00 0.00 62 1018.4
20260510145308 20 224 4.8 12.9 0.00 0.00 0.00 66 1018.5
20260510144804 20 281 6.4 12.9 0.00 0.00 0.00 63 1018.5
20260510144301 19 325 6.4 16.1 0.00 0.00 0.00 60 1018.3
20260510143801 19 290 4.8 11.3 0.00 0.00 0.00 64 1018.5
20260510143257 19 162 1.6 9.7 0.00 0.00 0.00 61 1018.3
20260510142754 18 305 9.7 11.3 0.00 0.00 0.00 64 1018.1
20260510142251 18 290 4.8 6.4 0.00 0.00 0.00 71 1018.2
20260510141748 18 242 4.8 6.4 0.00 0.00 0.00 67 1018.1
20260510141246 18 299 3.2 11.3 0.00 0.00 0.00 67 1018.2
20260510140742 17 295 9.7 11.3 0.00 0.00 0.00 70 1018.4
20260510140237 17 181 4.8 9.7 0.00 0.00 0.00 66 1018.1
20260510135731 17 306 6.4 6.4 0.00 0.00 0.00 71 1018.2
20260510135227 17 205 0.0 6.4 0.00 0.00 0.00 70 1018.2
20260510134725 17 227 3.2 9.7 0.00 0.00 0.00 73 1018.3
20260510134222 17 247 4.8 4.8 0.00 0.00 0.00 74 1018.4
20260510133718 17 185 6.4 11.3 0.00 0.00 0.00 72 1018.3
20260510133214 16 247 0.0 1.6 0.00 0.00 0.00 75 1018.2
20260510132705 16 209 6.4 9.7 0.00 0.00 0.00 76 1018.4
20260510132202 14 201 1.6 4.8 0.00 0.00 0.00 85 1018.2
20260510131700 13 145 0.0 3.2 0.00 0.00 0.00 89 1018.4
20260510131157 12 224 1.6 3.2 0.00 0.00 0.00 95 1018.4
20260510130653 12 189 3.2 3.2 0.00 0.00 0.00 98 1018.3
20260510130150 11 190 0.0 0.0 0.00 0.00 0.00 99 1018.3
20260510125646 11 190 0.0 0.0 0.00 0.00 0.00 99 1018.4
20260510125142 11 190 0.0 0.0 0.00 0.00 0.00 99 1018.4
20260510124640 11 190 0.0 0.0 0.00 0.00 0.00 99 1018.4
20260510124136 10 190 0.0 0.0 0.00 0.00 0.00 99 1018.5
20260510123632 9 190 0.0 0.0 0.00 0.00 0.00 99 1018.5
20260510123128 8 190 0.0 0.0 0.00 0.00 0.00 99 1018.6
20260510122624 8 190 0.0 0.0 0.00 0.00 0.00 99 1018.5
20260510122120 8 190 0.0 0.0 0.00 0.00 0.00 99 1018.5
20260510121617 7 190 0.0 0.0 0.00 0.00 0.00 99 1018.3
20260510121115 6 190 0.0 0.0 0.00 0.00 0.00 99 1018.4
20260510120613 6 190 0.0 0.0 0.00 0.00 0.00 99 1018.1
20260510120107 6 190 0.0 0.0 0.00 0.00 0.00 99 1018.2
20260510115604 6 190 0.0 0.0 0.00 0.00 0.00 99 1018.1
20260510115102 6 190 0.0 0.0 0.00 0.00 0.00 99 1018.1
20260510114557 6 190 0.0 0.0 0.00 0.00 0.00 99 1017.7
20260510114054 5 190 0.0 0.0 0.00 0.00 0.00 99 1017.9
20260510113549 5 190 0.0 0.0 0.00 0.00 0.00 99 1017.6
20260510113047 5 190 0.0 0.0 0.00 0.00 0.00 99 1017.6
20260510112543 5 190 0.0 0.0 0.00 0.00 0.00 99 1017.6
20260510112039 5 190 0.0 0.0 0.00 0.00 0.00 99 1017.7
20260510111536 5 190 0.0 0.0 0.00 0.00 0.00 99 1017.7
20260510111032 5 190 0.0 0.0 0.00 0.00 0.00 99 1017.7
20260510110528 5 190 0.0 0.0 0.00 0.00 0.00 99 1017.5
20260510110025 4 190 0.0 0.0 0.00 0.00 0.00 99 1017.5
20260510105520 4 190 0.0 0.0 0.00 0.00 0.00 99 1017.3
20260510105015 4 190 0.0 0.0 0.00 0.00 0.00 99 1017.3
20260510104512 4 190 0.0 0.0 0.00 0.00 0.00 99 1017.3
20260510104008 4 190 0.0 0.0 0.00 0.00 0.00 99 1017.2
20260510103506 4 190 0.0 0.0 0.00 0.00 0.00 99 1017.2
20260510103001 4 190 0.0 0.0 0.00 0.00 0.00 99 1017.3
20260510102457 4 190 0.0 0.0 0.00 0.00 0.00 99 1017.0
20260510101954 4 190 0.0 0.0 0.00 0.00 0.00 99 1016.9
20260510101452 4 190 0.0 0.0 0.00 0.00 0.00 99 1016.7
20260510100950 5 190 0.0 0.0 0.00 0.00 0.00 99 1016.6
20260510100441 5 190 0.0 0.0 0.00 0.00 0.00 99 1016.7
20260510095937 4 190 0.0 0.0 0.00 0.00 0.00 99 1016.7
20260510095432 4 190 0.0 0.0 0.00 0.00 0.00 99 1016.6
20260510094932 4 190 0.0 0.0 0.00 0.00 0.00 99 1016.5
20260510094427 4 190 0.0 0.0 0.00 0.00 0.00 99 1016.5
20260510093923 4 190 0.0 0.0 0.00 0.00 0.00 99 1016.5
20260510093418 4 190 0.0 0.0 0.00 0.00 0.00 99 1016.6
20260510092915 4 190 0.0 0.0 0.00 0.00 0.00 99 1016.4
20260510092413 4 190 0.0 0.0 0.00 0.00 0.00 99 1016.4
20260510091907 5 190 0.0 0.0 0.00 0.00 0.00 99 1016.2
20260510091404 5 190 0.0 0.0 0.00 0.00 0.00 99 1016.2
20260510090901 5 190 0.0 0.0 0.00 0.00 0.00 99 1016.2
20260510090357 4 190 0.0 0.0 0.00 0.00 0.00 99 1016.2
20260510085853 4 190 0.0 0.0 0.00 0.00 0.00 99 1016.2
20260510085348 4 190 0.0 0.0 0.00 0.00 0.00 99 1015.9
20260510084838 4 190 0.0 0.0 0.00 0.00 0.00 99 1016.2
20260510084336 5 190 0.0 0.0 0.00 0.00 0.00 99 1016.1
20260510083832 5 190 0.0 0.0 0.00 0.00 0.00 99 1015.9
20260510083329 5 190 0.0 0.0 0.00 0.00 0.00 99 1015.9
20260510082824 5 190 0.0 0.0 0.00 0.00 0.00 99 1015.8
20260510082321 5 190 0.0 0.0 0.00 0.00 0.00 99 1015.7
20260510081820 5 190 0.0 0.0 0.00 0.00 0.00 99 1015.8
20260510081316 5 190 0.0 0.0 0.00 0.00 0.00 99 1015.7
20260510080812 5 190 0.0 0.0 0.00 0.00 0.00 99 1015.7
20260510080307 5 190 0.0 0.0 0.00 0.00 0.00 99 1015.7
20260510075804 5 206 0.0 0.0 0.00 0.00 0.00 99 1015.7
20260510075305 5 209 0.0 0.0 0.00 0.00 0.00 99 1015.6
20260510074759 5 213 0.0 0.0 0.00 0.00 0.00 99 1015.6
20260510074255 5 213 0.0 0.0 0.00 0.00 0.00 99 1015.7
20260510073751 5 213 0.0 0.0 0.00 0.00 0.00 99 1015.7
20260510073247 5 213 0.0 0.0 0.00 0.00 0.00 99 1015.7
20260510072743 5 213 0.0 0.0 0.00 0.00 0.00 99 1015.7
20260510072240 5 213 0.0 0.0 0.00 0.00 0.00 99 1015.6
20260510071737 5 213 0.0 0.0 0.00 0.00 0.00 99 1015.6
20260510071233 5 213 0.0 0.0 0.00 0.00 0.00 99 1015.6
20260510070732 5 190 0.0 0.0 0.00 0.00 0.00 99 1015.7
20260510070229 5 190 0.0 0.0 0.00 0.00 0.00 99 1015.4
20260510065723 5 190 0.0 0.0 0.00 0.00 0.00 99 1015.7
20260510065220 5 190 0.0 0.0 0.00 0.00 0.00 99 1015.7
20260510064716 5 190 0.0 0.0 0.00 0.00 0.00 99 1015.4
20260510064214 5 190 0.0 0.0 0.00 0.00 0.00 99 1015.4
20260510063711 5 190 0.0 0.0 0.00 0.00 0.00 99 1015.5
20260510063207 6 190 0.0 0.0 0.00 0.00 0.00 99 1015.6
20260510062704 5 190 0.0 0.0 0.00 0.00 0.00 99 1015.6
20260510062159 6 190 0.0 0.0 0.00 0.00 0.00 99 1015.6
20260510061654 6 190 0.0 0.0 0.00 0.00 0.00 99 1015.7
20260510061152 6 190 0.0 0.0 0.00 0.00 0.00 99 1015.6
20260510060648 6 190 0.0 0.0 0.00 0.00 0.00 99 1015.6
20260510060145 6 190 0.0 0.0 0.00 0.00 0.00 99 1015.5
20260510055641 6 190 0.0 0.0 0.00 0.00 0.00 99 1015.5
20260510055140 6 190 0.0 0.0 0.00 0.00 0.00 99 1015.7
20260510054635 6 190 0.0 0.0 0.00 0.00 0.00 99 1015.6
20260510054131 6 190 0.0 0.0 0.00 0.00 0.00 99 1015.6
20260510053630 6 190 0.0 0.0 0.00 0.00 0.00 99 1015.8
20260510053127 6 191 0.0 0.0 0.00 0.00 0.00 99 1015.7
20260510052623 6 190 0.0 1.6 0.00 0.00 0.00 99 1015.6
20260510052119 6 190 0.0 0.0 0.00 0.00 0.00 99 1015.7
20260510051614 6 190 0.0 0.0 0.00 0.00 0.00 99 1015.5
20260510051112 6 190 0.0 0.0 0.00 0.00 0.00 99 1015.6
20260510050609 6 190 0.0 0.0 0.00 0.00 0.00 99 1015.6
20260510050107 6 190 0.0 0.0 0.00 0.00 0.00 99 1015.7
20260510045604 7 190 0.0 0.0 0.00 0.00 0.00 99 1015.6
20260510045100 7 190 0.0 0.0 0.00 0.00 0.00 99 1015.7
20260510044556 7 190 0.0 0.0 0.00 0.00 0.00 99 1015.5
20260510044054 7 190 0.0 0.0 0.00 0.00 0.00 98 1015.5
20260510043549 7 190 0.0 0.0 0.00 0.00 0.00 98 1015.6
20260510043045 7 190 0.0 0.0 0.00 0.00 0.00 98 1015.6
20260510042544 7 190 0.0 0.0 0.00 0.00 0.00 98 1015.7
20260510042039 7 190 0.0 0.0 0.00 0.00 0.00 98 1015.6
20260510041537 7 190 0.0 0.0 0.00 0.00 0.00 98 1015.5
20260510041034 7 190 0.0 0.0 0.00 0.00 0.00 98 1015.5
20260510040525 7 190 0.0 0.0 0.00 0.00 0.00 98 1015.5
20260510040021 7 190 0.0 0.0 0.00 0.00 0.00 97 1015.4
20260510035518 7 190 0.0 0.0 0.00 0.00 0.00 97 1015.4
20260510035017 8 190 0.0 0.0 0.00 0.00 0.00 97 1015.5
20260510034516 8 190 0.0 0.0 0.00 0.00 0.00 97 1015.8
20260510034012 8 190 0.0 0.0 0.00 0.00 0.00 97 1015.4
20260510033508 8 190 0.0 0.0 0.00 0.00 0.00 97 1015.5
20260510033007 8 190 0.0 0.0 0.00 0.00 0.00 97 1015.4
20260510032502 8 235 0.0 0.0 0.00 0.00 0.00 97 1015.2
20260510031956 8 234 0.0 0.0 0.00 0.00 0.00 97 1015.3
20260510031452 8 235 0.0 0.0 0.00 0.00 0.00 97 1015.4
20260510030948 8 316 0.0 0.0 0.00 0.00 0.00 96 1015.3
20260510030443 8 310 3.2 3.2 0.00 0.00 0.00 96 1015.3
20260510025941 8 160 0.0 0.0 0.00 0.00 0.00 96 1015.3
20260510025438 8 160 0.0 0.0 0.00 0.00 0.00 96 1015.4
20260510024936 9 160 0.0 0.0 0.00 0.00 0.00 95 1015.5
20260510024432 9 160 0.0 0.0 0.00 0.00 0.00 95 1015.5
20260510023928 8 161 0.0 0.0 0.00 0.00 0.00 95 1015.6
20260510023425 9 160 0.0 0.0 0.00 0.00 0.00 94 1015.3
20260510022922 9 160 0.0 0.0 0.00 0.00 0.00 94 1015.2
20260510022421 9 160 0.0 0.0 0.00 0.00 0.00 94 1015.2
20260510021920 10 160 0.0 0.0 0.00 0.00 0.00 94 1015.1
20260510021418 9 160 0.0 0.0 0.00 0.00 0.00 93 1015.2
20260510020914 10 160 0.0 0.0 0.00 0.00 0.00 92 1014.9
20260510020409 10 160 0.0 0.0 0.00 0.00 0.00 92 1014.6
20260510015905 10 160 0.0 0.0 0.00 0.00 0.00 92 1014.4
20260510015401 10 160 0.0 0.0 0.00 0.00 0.00 91 1014.4
20260510014857 10 160 0.0 0.0 0.00 0.00 0.00 90 1014.5
20260510014354 11 160 0.0 0.0 0.00 0.00 0.00 90 1014.5
20260510013850 11 160 0.0 0.0 0.00 0.00 0.00 89 1014.4
20260510013346 11 160 0.0 0.0 0.00 0.00 0.00 88 1014.0
20260510012841 11 160 0.0 0.0 0.00 0.00 0.00 87 1014.0
20260510012335 11 160 0.0 0.0 0.00 0.00 0.00 87 1014.3
20260510011830 11 160 0.0 0.0 0.00 0.00 0.00 87 1014.0
20260510011326 12 160 0.0 0.0 0.00 0.00 0.00 86 1013.9
20260510010823 12 160 0.0 0.0 0.00 0.00 0.00 82 1013.8
20260510010320 12 160 0.0 0.0 0.00 0.00 0.00 80 1013.9
20260510005816 13 160 0.0 0.0 0.00 0.00 0.00 79 1013.7
20260510005312 13 160 0.0 0.0 0.00 0.00 0.00 78 1013.9
20260510004811 13 160 0.0 0.0 0.00 0.00 0.00 76 1013.6
20260510004308 14 160 0.0 0.0 0.00 0.00 0.00 75 1013.5
20260510003806 15 160 0.0 0.0 0.00 0.00 0.00 71 1013.8
20260510003302 15 160 0.0 0.0 0.00 0.00 0.00 70 1013.7
20260510002801 16 160 1.6 1.6 0.00 0.00 0.00 67 1013.5
20260510002258 16 265 0.0 1.6 0.00 0.00 0.00 63 1013.4
20260510001755 16 190 3.2 3.2 0.00 0.00 0.00 63 1013.3
20260510001253 17 184 0.0 0.0 0.00 0.00 0.00 62 1013.2
20260510000748 18 184 0.0 1.6 0.00 0.00 0.00 60 1013.4
20260510000248 18 250 1.6 3.2 0.00 0.00 0.00 58 1013.2
20260509235743 18 270 0.0 1.6 0.00 0.00 0.00 57 1013.1
20260509235240 18 258 0.0 1.6 0.00 0.00 0.00 55 1013.2
20260509234735 18 233 1.6 3.2 0.00 0.00 0.00 59 1013.2
20260509234232 18 281 1.6 3.2 0.00 0.00 0.00 61 1012.9
20260509233731 17 183 0.0 1.6 0.00 0.00 0.00 59 1013.0
20260509233229 17 226 3.2 4.8 0.00 0.00 0.00 59 1013.1
20260509232724 17 300 3.2 11.3 0.00 0.00 0.00 58 1013.1
20260509232221 18 248 6.4 9.7 0.00 0.00 0.00 57 1013.0
20260509231717 18 298 3.2 6.4 0.00 0.00 0.00 55 1012.9
20260509231215 18 257 8.0 11.3 0.00 0.00 0.00 54 1012.9
20260509230713 18 293 3.2 4.8 0.00 0.00 0.00 58 1012.8
20260509230209 18 218 4.8 11.3 0.00 0.00 0.00 57 1012.8
20260509225705 18 297 4.8 11.3 0.00 0.00 0.00 56 1012.8
20260509225201 18 350 3.2 11.3 0.00 0.00 0.00 57 1012.8
20260509224656 18 274 1.6 6.4 0.00 0.00 0.00 53 1012.8
20260509224153 19 253 6.4 9.7 0.00 0.00 0.00 56 1013.0
20260509223651 18 268 1.6 6.4 0.00 0.00 0.00 54 1012.8
20260509223147 18 335 12.9 14.5 0.00 0.00 0.00 53 1013.1
20260509222644 18 196 3.2 9.7 0.00 0.00 0.00 55 1013.1
20260509222139 18 260 4.8 11.3 0.00 0.00 0.00 52 1013.1
20260509221636 18 326 11.3 14.5 0.00 0.00 0.00 53 1013.2
20260509221131 18 294 6.4 6.4 0.00 0.00 0.00 55 1013.1
20260509220627 18 326 3.2 9.7 0.00 0.00 0.00 54 1013.1
20260509220124 18 285 4.8 6.4 0.00 0.00 0.00 56 1013.3
20260509215620 18 326 6.4 11.3 0.00 0.00 0.00 54 1013.2
20260509215117 18 259 3.2 4.8 0.00 0.00 0.00 54 1013.3
20260509214614 18 317 8.0 14.5 0.00 0.00 0.00 52 1013.1
20260509214111 18 276 6.4 11.3 0.00 0.00 0.00 52 1013.1
20260509213607 18 222 4.8 16.1 0.00 0.00 0.00 53 1013.0
20260509213103 18 262 6.4 16.1 0.00 0.00 0.00 53 1013.1
20260509212601 18 225 3.2 11.3 0.00 0.00 0.00 50 1013.0
20260509212058 18 289 6.4 9.7 0.00 0.00 0.00 51 1012.8
20260509211553 18 258 1.6 4.8 0.00 0.00 0.00 55 1012.9
20260509211050 18 281 3.2 11.3 0.00 0.00 0.00 51 1013.0
20260509210547 18 264 1.6 9.7 0.00 0.00 0.00 52 1013.0
20260509210043 18 248 6.4 14.5 0.00 0.00 0.00 50 1012.7
20260509205537 18 235 4.8 6.4 0.00 0.00 0.00 53 1012.8
20260509205033 18 249 6.4 11.3 0.00 0.00 0.00 51 1012.8
20260509204530 18 273 6.4 9.7 0.00 0.00 0.00 52 1012.8
20260509204026 18 309 11.3 16.1 0.00 0.00 0.00 53 1012.7
20260509203522 18 273 6.4 9.7 0.00 0.00 0.00 52 1012.7
20260509203021 18 300 8.0 12.9 0.00 0.00 0.00 51 1012.4
20260509202515 18 242 3.2 11.3 0.00 0.00 0.00 50 1012.4
20260509202011 18 328 8.0 11.3 0.00 0.00 0.00 53 1012.6
20260509201506 18 302 12.9 16.1 0.00 0.00 0.00 50 1012.7
20260509201003 18 285 3.2 6.4 0.00 0.00 0.00 52 1012.3
20260509200458 18 300 8.0 12.9 0.00 0.00 0.00 49 1012.3
20260509195954 18 290 1.6 4.8 0.00 0.00 0.00 48 1012.2
20260509195450 18 288 6.4 9.7 0.00 0.00 0.00 47 1012.2
20260509194949 18 346 4.8 11.3 0.00 0.00 0.00 52 1012.4
20260509194446 18 311 11.3 12.9 0.00 0.00 0.00 49 1012.6
20260509193943 18 294 9.7 14.5 0.00 0.00 0.00 51 1012.3
20260509193442 18 306 8.0 11.3 0.00 0.00 0.00 51 1012.4
20260509192938 18 274 11.3 14.5 0.00 0.00 0.00 46 1012.3